Weather in Addis Ababa

Ethiopia     9°02′06″N   38°45′05″E
temp.,
°C
wind,
m/s
gust,
m/s
humid.,
%
clouds,
%
prec.,
mm/h
press.,
hPa
HPBL,
m
24 january, sun
sun2400:00+13e134125 0.0 1016175
03:00+12e124335 0.0 1016143
06:00+11ne124396 0.0 1017119
09:00+16ese243567 0.0 1018638
12:00+21se442529 0.0 10141785
15:00+23se542157 0.0 10102250
18:00+19ese573339 0.0 1011724
21:00+15e354259 0.0 1016258
25 january, mon
mon2500:00+13e234716 0.0 1016192
03:00+12e244813 0.0 1016187
06:00+11ene235669 0.0 1018170
09:00+15ese354479 0.0 1019681
12:00+20ese442960 0.0 10151815
15:00+23ese542269 0.0 10112267
18:00+19ese67327 0.0 1012864
21:00+15e364517 0.0 1016247
26 january, tue
tue2600:00+13ese124919 0.0 1017183
03:00+11e134910 0.0 1016178
06:00+11ne12510 0.0 1018135
09:00+15se23370 0.0 1018522
12:00+21se34240 0.0 10141855
15:00+23se65210 0.0 10101704
18:00+18ese57242 0.0 1012726
21:00+14ese252441 0.0 1016219
27 january, wed
wed2700:00+12ene132356 0.0 1017177
03:00+11ene232432 0.0 1016143
06:00+10ene232716 0.0 1017100
09:00+15ese24198 0.0 1018576
12:00+21se44148 0.0 10141482
15:00+23se441211 0.0 10102194
18:00+19ese57180 0.0 1011714
21:00+14e36250 0.0 1016233
28 january, thu
thu2800:00+12e13220 0.0 1017165
03:00+11ne11240 0.0 1016105
06:00+10ne11290 0.0 101729
09:00+16se22230 0.0 1017449
12:00+22sse23160 0.0 10141716
15:00+24sse34120 0.0 10092691
18:00+20ese67200 0.0 1011791
21:00+15e36270 0.0 1016223